Location: Bavegemberg
(50.9500°N, 3.8833°E)
Time: 13:07:10
(UTC+00:00)

Cosmos 2219 Rocket - Pass Details

Date: 23 May 2024
Orbit: 826 x 846 km, 71.0° (Epoch: 16 June)

Event Time Altitude Azimuth Distance (km) Brightness Sun altitude
Rises 01:47:37 0° 331° (NNW) 3,398 5.8 -13.2°
Reaches altitude 10° 01:50:08 10° 337° (NNW) 2,463 5.1 -13.0°
Maximum altitude 01:55:39 51° 53° (NE) 1,056 3.2 -12.5°
Drops below altitude 10° 02:01:08 10° 129° (SE) 2,462 4.6 -12.1°
Sets 02:03:40 0° 134° (SE) 3,395 5.2 -11.9°
